[[{"header":{"parameterUnit":"m.s-1","parameterCategory":1,"la1":30.2991,"la2":30.254,"lo1":-89.0895,"lo2":-89.0444,"dy":0.0017,"dx":0.0017,"nx":28,"ny":28,"refTime":"2024-06-20T09:00:00:Z","depth":0,"parameterNumber":2,"parameterNumberName":"U-component_of_WINDS"},"data":[0,0,0,0,0,0,0,0,0,0,0,0,0,0,0,0,0,0,0,0,0,0,0,0,0,0,0,0,0,0,0,0,0,0,0,0,0,0,0,0,0,0,0,0,0,0,0,0,0,0,0,0,0,0,0,0,0,0,-6.6108,-6.6109,0,-6.6211,-6.6212,-6.6213,-6.6064,-6.6059,-6.6054,-6.6049,-6.6156,-6.6164,-6.6171,0,0,0,0,0,0,0,0,0,0,0,0,0,-6.5782,-6.5789,-6.6108,-6.6109,-6.611,-6.6211,-6.6212,-6.6214,-6.6065,-6.6059,-6.6052,-6.6046,-6.6154,-6.6163,-6.6172,0,0,0,0,0,0,0,0,0,0,0,0,0,-6.5909,-6.5791,-6.6107,-6.6048,-6.6044,-6.6211,-6.6212,-6.6214,-6.6066,-6.6059,-6.6051,-6.6043,-6.6151,-6.6162,-6.6173,-6.6403,0,0,-6.6209,-6.6214,0,0,0,0,0,0,0,0,-6.5902,-6.5921,-6.6056,-6.6053,-6.6048,-6.6117,-6.6137,-6.6278,-6.6068,-6.6058,-6.6049,-6.6039,-6.615,-6.6161,-6.6197,-6.6408,-6.6413,-6.621,-6.6217,-6.6222,-6.6225,0,0,0,0,0,0,0,-6.5893,-6.5916,-6.6148,-6.6058,-6.6053,-6.6017,-6.6026,-6.6163,-6.6147,-6.6058,-6.6048,-6.6062,-6.6146,-6.6187,-6.6199,-6.6414,-6.621,-6.622,-6.6227,-6.6232,-6.682,-6.6828,0,0,0,0,0,0,-6.5891,-6.5909,-6.6145,-6.6151,-6.5954,-6.6029,-6.6039,-6.6103,-6.6145,-6.6144,-6.6069,-6.6055,-6.6171,-6.6185,-6.6202,-6.6475,-6.6222,-6.6233,-6.624,-6.6811,-6.6822,-6.6831,0,0,0,0,0,0,-6.5885,-6.5914,-6.6141,-6.6028,-6.6054,-6.6043,-6.6115,-6.6109,-6.6149,-6.6153,-6.6149,-6.6113,-6.6165,-6.6186,-6.6354,-6.6476,-6.6238,-6.6249,-6.6801,-6.6814,-6.6826,-6.7022,0,0,0,0,0,0,-6.5876,-6.5912,-6.6,-6.6031,-6.606,-6.6292,-6.6123,-6.6117,-6.617,-6.6152,-6.6193,-6.6193,-6.616,-6.6338,-6.6366,-6.6488,-6.6258,-6.679,-6.6807,-6.6822,-6.7005,-6.704,-6.707,0,0,0,0,0,-6.5865,-6.6051,-6.6005,-6.6034,-6.6169,-6.6299,-6.6316,-6.6275,-6.618,-6.6268,-6.627,-6.6191,-6.6458,-6.6356,-6.6387,-6.6514,-6.6782,-6.6802,-6.6821,-6.699,-6.7033,-6.7069,0,0,0,0,0,0,-6.6035,-6.6054,-6.6003,-6.6204,-6.6251,-6.6274,-6.6383,-6.6322,-6.6397,-6.6378,-6.6323,-6.6334,-6.6515,-6.6531,-6.6417,-6.6739,-6.6604,-6.6631,-6.6722,-6.6763,-6.6796,-6.6789,-6.6268,0,0,0,0,0,-6.6096,-6.6199,-6.621,-6.6387,-6.6413,-6.6395,-6.645,-6.6413,-6.646,-6.648,-6.6494,-6.6543,-6.6637,-6.6701,-6.6788,-6.7005,-6.7013,-6.7108,-6.7141,-6.7168,-6.7192,-6.7309,-6.7352,-6.6895,-6.6894,-6.6894,0,0,-6.6222,-6.6245,-6.6314,-6.6421,-6.6453,-6.6563,-6.6412,-6.6534,-6.6615,-6.6498,-6.6658,-6.6671,-6.6722,-6.6916,-6.7002,-6.6935,-6.732,-6.7193,-6.7214,-6.7224,-6.7333,-6.7377,-6.7415,-6.6908,-6.6905,-6.6903,0,0,-6.6509,-6.6537,-6.6687,-6.6722,-6.6773,-6.6759,-6.6796,-6.6828,-6.6832,-6.6991,-6.6906,-6.7001,-6.7166,-6.7205,-6.7247,-6.755,-6.7481,-6.7579,-6.7752,-6.7866,-6.7902,-6.7934,-6.8043,-6.8083,-6.7603,-6.7603,-6.7604,0,-6.6661,-6.6821,-6.6772,-6.6901,-6.695,-6.6849,-6.7001,-6.7038,-6.7115,-6.7152,-6.7075,-6.7279,-6.7306,-6.7509,-6.7583,-6.7619,-6.766,-6.7575,-6.7901,-6.7932,-6.7961,-6.8064,-6.8105,-6.7615,-6.7614,-6.7613,-6.7611,0,-6.7006,-6.7119,-6.7234,-6.731,-6.7373,-6.7513,-6.7485,-6.7554,-6.7513,-6.7508,-6.7672,-6.7701,-6.7792,-6.7837,-6.7798,-6.8035,-6.7992,-6.7909,-6.7773,-6.8017,-6.8114,-6.8153,-6.7632,-6.7628,-6.7624,-6.7621,0,0,-6.7403,-6.7451,-6.7494,-6.7528,-6.7576,-6.7662,-6.7797,-6.7886,-6.7948,-6.8004,-6.8116,-6.8257,-6.8181,-6.8229,-6.8193,-6.8294,-6.8533,-6.8198,-6.8198,-6.826,-6.8797,-6.886,-6.8906,-6.8486,-6.8494,-6.85,-6.8793,0,-6.7691,-6.7924,-6.7883,-6.811,-6.8214,-6.8119,-6.8237,-6.828,-6.8278,-6.8367,-6.8365,-6.8466,-6.8357,-6.8386,-6.8481,-6.8483,-6.864,-6.8461,-6.8592,-6.8597,-6.8584,-6.8956,-6.9023,-6.9299,-6.883,-6.8836,-6.8841,0,-6.8057,-6.8127,-6.8364,-6.8396,-6.8438,-6.8545,-6.8623,-6.8709,-6.8755,-6.8747,-6.8801,-6.8746,-6.8881,-6.8742,-6.8928,-6.8808,-6.8859,-6.8868,-6.8878,-6.889,-6.8735,-6.898,-6.9385,-6.9428,-6.8899,-6.8895,-6.889,0,-6.8325,-6.8478,-6.864,-6.8671,-6.8712,-6.879,-6.881,-6.8849,-6.8905,-6.8974,-6.901,-6.9094,-6.9141,-6.9207,-6.9177,-6.9078,-6.937,-6.9227,-6.9368,-6.9369,-6.9434,-6.9431,-6.9856,-6.9465,-6.9465,-6.9464,-6.9463,0,-6.8651,-6.88,-6.8761,-6.8861,-6.9025,-6.8977,-6.9141,-6.915,-6.9186,-6.9286,-6.9209,-6.9304,-6.9258,-6.9351,-6.9328,-6.9487,-6.9508,-6.9506,-6.9498,-6.9514,-6.9514,-6.9547,-6.9528,-6.9475,-6.9472,-6.947,-6.9468,0,-6.8978,-6.8958,-6.9128,-6.9153,-6.9163,-6.9283,-6.9304,-6.9398,-6.939,-6.9518,-6.9545,-6.9534,-6.9639,-6.9615,-6.9731,-6.9715,-6.9915,-6.9883,-6.99,-6.9892,-7.0034,-7.0022,-7.0496,-7.0556,-7.0126,-7.013,-7.0134,0,-6.9188,-6.9301,-6.9338,-6.9399,-6.9426,-6.9526,-6.9582,-6.9539,-6.9602,-6.9664,-6.975,-6.9848,-6.9925,-7.0098,-7.01,-7.0188,-7.0158,-7.0318,-7.0171,-7.0183,-7.0162,-7.0157,-7.0168,-7.0348,-7.0353,-7.0357,-7.036,0,-6.9563,-6.9548,-6.9632,-6.9715,-6.9785,-6.9847,-6.9902,-6.9957,-6.9919,-6.9993,-7.0099,-7.0159,-7.0276,-7.0376,-7.0457,-7.0478,-7.0415,-7.0407,-7.0444,-7.0461,-7.0467,-7.0467,-6.9981,-7.0396,-7.0393,-7.039,-7.0388,-7.0387,-6.9839,-6.9935,-6.9976,-7.0073,-7.011,-7.0164,-7.0253,-7.0256,-7.0344,-7.0436,-7.0405,-7.0528,-7.0571,-7.0674,-7.0705,-7.08,-7.074,-7.0794,-7.0808,-7.0822,-7.084,-7.0451,-7.0815,-7.0814,-7.0813,-7.0812,-7.0811,0,-7.0211,-7.0233,-7.0323,-7.0402,-7.0479,-7.0411,-7.0468,-7.0537,-7.0646,-7.0691,-7.0768,-7.0891,-7.0987,-7.0997,-7.1087,-7.1161,-7.1134,-7.1187,-7.1181,-7.1188,-7.0888,-7.0848,-7.1207,-7.1207,-7.1207,-7.1207,-7.1207,-7.1207,-7.0414,-7.0573,-7.0562,-7.0738,-7.0758,-7.0877,-7.0916,-7.0965,-7.1002,-7.1142,-7.1221,-7.1226,-7.1258,-7.135,-7.1435,-7.1436,-7.1473,-7.1538,-7.1527,-7.1248,-7.1208,-7.1171,-7.1132,-7.1546,-7.1546,-7.1818,-7.1821,-7.1823]},{"header":{"parameterUnit":"m.s-1","parameterCategory":1,"la1":30.2991,"la2":30.254,"lo1":-89.0895,"lo2":-89.0444,"dy":0.0017,"dx":0.0017,"nx":28,"ny":28,"refTime":"2024-06-20T09:00:00:Z","depth":0,"parameterNumber":3,"parameterNumberName":"V-component_of_WINDS"},"data":[0,0,0,0,0,0,0,0,0,0,0,0,0,0,0,0,0,0,0,0,0,0,0,0,0,0,0,0,0,0,0,0,0,0,0,0,0,0,0,0,0,0,0,0,0,0,0,0,0,0,0,0,0,0,0,0,0,0,-3.1399,-3.1398,0,-3.1357,-3.1357,-3.1356,-3.13,-3.1299,-3.1298,-3.1297,-3.1255,-3.1255,-3.1254,0,0,0,0,0,0,0,0,0,0,0,0,0,-3.1429,-3.1429,-3.1399,-3.1398,-3.1398,-3.1357,-3.1357,-3.1356,-3.13,-3.1299,-3.1298,-3.1297,-3.1255,-3.1255,-3.1254,0,0,0,0,0,0,0,0,0,0,0,0,0,-3.1405,-3.1429,-3.1399,-3.1365,-3.1362,-3.1357,-3.1356,-3.1356,-3.1301,-3.1299,-3.1298,-3.1296,-3.1255,-3.1255,-3.1254,-3.128,0,0,-3.1253,-3.1253,0,0,0,0,0,0,0,0,-3.1406,-3.1404,-3.1371,-3.1367,-3.1364,-3.1332,-3.1351,-3.133,-3.1301,-3.1324,-3.1297,-3.1296,-3.1282,-3.1279,-3.1274,-3.1278,-3.1276,-3.1253,-3.1253,-3.1252,-3.1252,0,0,0,0,0,0,0,-3.1408,-3.1405,-3.1382,-3.137,-3.1366,-3.1352,-3.1347,-3.1347,-3.1311,-3.1322,-3.1317,-3.1313,-3.128,-3.1275,-3.1273,-3.1275,-3.1253,-3.1253,-3.1252,-3.1252,-3.1294,-3.1295,0,0,0,0,0,0,-3.1415,-3.1407,-3.1384,-3.1381,-3.1382,-3.1352,-3.1347,-3.1344,-3.1311,-3.1305,-3.1315,-3.1311,-3.1276,-3.1273,-3.1271,-3.1296,-3.1252,-3.1252,-3.1252,-3.1293,-3.1294,-3.1296,0,0,0,0,0,0,-3.1416,-3.1413,-3.1385,-3.1393,-3.1388,-3.1353,-3.135,-3.1344,-3.1339,-3.1306,-3.1299,-3.1316,-3.1275,-3.1272,-3.1277,-3.1294,-3.1252,-3.1252,-3.1291,-3.1293,-3.1295,-3.1349,0,0,0,0,0,0,-3.1417,-3.1414,-3.1424,-3.1393,-3.1388,-3.1393,-3.1352,-3.1344,-3.1338,-3.1333,-3.1305,-3.13,-3.1274,-3.1278,-3.1277,-3.1293,-3.1251,-3.129,-3.1292,-3.1295,-3.1346,-3.1353,-3.1359,0,0,0,0,0,-3.1418,-3.1441,-3.1424,-3.1422,-3.1399,-3.1394,-3.1391,-3.136,-3.134,-3.1349,-3.1327,-3.13,-3.1293,-3.1279,-3.1277,-3.1294,-3.1288,-3.1291,-3.1294,-3.1343,-3.1351,-3.1359,0,0,0,0,0,0,-3.1474,-3.1436,-3.1418,-3.1432,-3.1416,-3.1384,-3.1395,-3.1371,-3.1361,-3.1357,-3.1319,-3.1314,-3.1323,-3.1309,-3.1294,-3.1315,-3.1286,-3.1289,-3.1324,-3.1332,-3.1338,-3.1341,-3.1251,0,0,0,0,0,-3.1489,-3.1487,-3.1454,-3.147,-3.1463,-3.143,-3.1427,-3.1405,-3.1387,-3.1381,-3.1359,-3.1343,-3.1337,-3.1334,-3.1327,-3.1344,-3.1335,-3.1354,-3.136,-3.1366,-3.1368,-3.1374,-3.1381,-3.1306,-3.1306,-3.1306,0,0,-3.1518,-3.1497,-3.1498,-3.148,-3.1466,-3.1465,-3.1425,-3.1426,-3.1425,-3.1381,-3.1384,-3.1368,-3.1347,-3.1358,-3.1362,-3.1347,-3.1387,-3.137,-3.1374,-3.1374,-3.1378,-3.1385,-3.1391,-3.1308,-3.1308,-3.1307,0,0,-3.1569,-3.1554,-3.1564,-3.155,-3.1529,-3.1507,-3.1509,-3.1481,-3.1468,-3.1471,-3.1437,-3.1434,-3.1425,-3.1411,-3.1403,-3.1448,-3.1422,-3.1447,-3.1481,-3.1486,-3.1492,-3.1497,-3.1511,-3.1517,-3.1449,-3.145,-3.145,0,-3.1608,-3.1605,-3.1573,-3.1575,-3.1567,-3.1527,-3.1536,-3.1524,-3.1502,-3.1497,-3.148,-3.1466,-3.145,-3.1455,-3.1466,-3.1462,-3.1462,-3.1449,-3.1494,-3.1499,-3.1503,-3.1516,-3.1521,-3.1453,-3.1452,-3.1452,-3.1452,0,-3.1653,-3.1651,-3.1662,-3.164,-3.1634,-3.164,-3.1607,-3.1605,-3.1583,-3.1562,-3.1565,-3.1543,-3.153,-3.153,-3.1509,-3.1532,-3.1523,-3.1501,-3.1471,-3.1514,-3.1525,-3.153,-3.1457,-3.1456,-3.1455,-3.1454,0,0,-3.1739,-3.1698,-3.1702,-3.1691,-3.1663,-3.1661,-3.1665,-3.1651,-3.1649,-3.1635,-3.1635,-3.1628,-3.1606,-3.1597,-3.1574,-3.1579,-3.1613,-3.1556,-3.1555,-3.1566,-3.1635,-3.165,-3.1657,-3.1597,-3.1598,-3.1598,-3.1636,0,-3.1784,-3.1788,-3.1758,-3.1769,-3.1766,-3.1727,-3.173,-3.1713,-3.1694,-3.1688,-3.1666,-3.1661,-3.1634,-3.1628,-3.1631,-3.1609,-3.1627,-3.1606,-3.1596,-3.1596,-3.16,-3.1663,-3.168,-3.1717,-3.164,-3.1641,-3.1642,0,-3.1837,-3.1825,-3.1835,-3.1806,-3.1803,-3.1806,-3.179,-3.1786,-3.1765,-3.1751,-3.174,-3.1713,-3.1713,-3.1686,-3.1684,-3.1671,-3.1665,-3.1653,-3.1654,-3.165,-3.162,-3.166,-3.1728,-3.1733,-3.1649,-3.1648,-3.1648,0,-3.1896,-3.1882,-3.1886,-3.1878,-3.1844,-3.1847,-3.1833,-3.1811,-3.1804,-3.179,-3.1784,-3.1771,-3.1764,-3.1753,-3.1723,-3.1706,-3.1725,-3.1695,-3.1711,-3.1712,-3.1716,-3.1715,-3.1782,-3.1715,-3.1715,-3.1715,-3.1715,0,-3.1949,-3.1956,-3.1912,-3.1914,-3.1921,-3.1887,-3.1894,-3.1876,-3.1857,-3.1854,-3.182,-3.1818,-3.178,-3.1773,-3.175,-3.1751,-3.1748,-3.1735,-3.1729,-3.1737,-3.1739,-3.1732,-3.1728,-3.1716,-3.1716,-3.1716,-3.1715,0,-3.2015,-3.1986,-3.1988,-3.1955,-3.1947,-3.1953,-3.1925,-3.1925,-3.1903,-3.19,-3.1897,-3.1863,-3.1854,-3.1823,-3.1806,-3.179,-3.1798,-3.1786,-3.1804,-3.18,-3.1816,-3.1815,-3.1879,-3.1885,-3.1817,-3.1818,-3.1818,0,-3.205,-3.2055,-3.2022,-3.2018,-3.2005,-3.1999,-3.1991,-3.1957,-3.1951,-3.1926,-3.1929,-3.1917,-3.1905,-3.1891,-3.1864,-3.185,-3.1837,-3.1861,-3.1835,-3.1843,-3.1835,-3.1834,-3.1834,-3.1866,-3.1867,-3.1868,-3.1869,0,-3.2114,-3.2098,-3.2089,-3.2074,-3.2066,-3.2053,-3.2037,-3.2036,-3.1997,-3.1991,-3.1981,-3.1972,-3.1953,-3.1941,-3.1923,-3.1907,-3.1881,-3.1877,-3.1879,-3.1888,-3.1897,-3.189,-3.1818,-3.1875,-3.1875,-3.1874,-3.1874,-3.1874,-3.2164,-3.2165,-3.2142,-3.2132,-3.2117,-3.2103,-3.2101,-3.2079,-3.2069,-3.2052,-3.2032,-3.2023,-3.2001,-3.1973,-3.196,-3.1951,-3.1938,-3.1942,-3.1943,-3.1944,-3.1947,-3.19,-3.1948,-3.1948,-3.1948,-3.1948,-3.1948,0,-3.2223,-3.2207,-3.2198,-3.2177,-3.2169,-3.2145,-3.2127,-3.2121,-3.2114,-3.2095,-3.2084,-3.2071,-3.2058,-3.203,-3.2014,-3.2013,-3.2,-3.201,-3.2009,-3.2005,-3.1961,-3.196,-3.202,-3.202,-3.202,-3.202,-3.202,-3.202,-3.2254,-3.2254,-3.2237,-3.2229,-3.2212,-3.2203,-3.2194,-3.218,-3.2165,-3.2152,-3.2141,-3.2123,-3.2099,-3.2082,-3.2068,-3.206,-3.2055,-3.2068,-3.2056,-3.2015,-3.2008,-3.2002,-3.2,-3.2068,-3.2068,-3.21,-3.21,-3.21]}]]